Location: Erdweis
(48.5167°N, 15.3500°E)
Time: 06:03:57
(UTC+00:00)

CZ-2C R/B - Pass Details

Date: 18 September 2020
Orbit: 785 x 870 km, 98.2° (Epoch: 23 October)

Event Time Altitude Azimuth Distance (km) Brightness Sun altitude
Rises 17:35:48 0° 24° (NNE) 3,414 5.7 -6.0°
Reaches altitude 10° 17:38:41 10° 39° (NE) 2,487 4.9 -6.5°
Maximum altitude 17:43:00 23° 91° (E) 1,753 3.8 -7.2°
Drops below altitude 10° 17:47:20 10° 142° (SE) 2,503 4.7 -7.9°
Sets 17:50:14 0° 157° (SSE) 3,441 5.5 -8.4°
